• In Slovakia
  • List of Countries
  • For 7 days
  • Water Temperature
  • Satellite Maps
  • Weather Map
  • Weather Widgets
  • user-avatar
    Login

    Hourly Weather Sydney

    Today, 17 November, Friday

    Time Temperature Precipitation Wind Pressure Humidity
    00:00 +19°C° 0 mm 5 mps 761 mmHg 87%
    01:00 +17°C° 0 mm 5 mps 761 mmHg 88%
    02:00 +18°C° 0 mm 4 mps 761 mmHg 89%
    03:00 +18°C° 0 mm 4 mps 761 mmHg 90%
    04:00 +17°C° 0 mm 5 mps 761 mmHg 91%
    05:00 +19°C° 0.1 mm 5 mps 761 mmHg 86%
    06:00 +20°C° 0.1 mm 5 mps 762 mmHg 81%
    07:00 +21°C° 0.1 mm 5 mps 762 mmHg 76%
    08:00 +23°C° 0 mm 6 mps 762 mmHg 69%
    09:00 +26°C° 0 mm 6 mps 762 mmHg 61%
    10:00 +27°C° 0 mm 6 mps 762 mmHg 59%
    11:00 +27°C° 0.5 mm 7 mps 762 mmHg 59%
    12:00 +27°C° 0.5 mm 7 mps 762 mmHg 60%
    13:00 +27°C° 0.5 mm 7 mps 762 mmHg 60%
    14:00 +27°C° 0.3 mm 7 mps 762 mmHg 62%
    15:00 +26°C° 0.3 mm 7 mps 761 mmHg 63%
    16:00 +26°C° 0 mm 6 mps 761 mmHg 64%
    17:00 +24°C° 0.2 mm 6 mps 762 mmHg 68%
    18:00 +23°C° 0.2 mm 6 mps 762 mmHg 72%
    19:00 +22°C° 0.2 mm 6 mps 762 mmHg 76%
    20:00 +21°C° 0 mm 6 mps 762 mmHg 77%
    21:00 +21°C° 0 mm 6 mps 762 mmHg 78%
    22:00 +20°C° 0 mm 4 mps 763 mmHg 80%
    23:00 +20°C° 0.1 mm 4 mps 763 mmHg 81%

    Tomorrow, 18 November, Saturday

    Time Temperature Precipitation Wind Pressure Humidity
    00:00 +20°C° 0.1 mm 4 mps 762 mmHg 82%
    01:00 +19°C° 0.1 mm 5 mps 762 mmHg 82%
    02:00 +19°C° 0.2 mm 5 mps 762 mmHg 83%
    03:00 +19°C° 0.2 mm 5 mps 762 mmHg 84%
    04:00 +19°C° 0.2 mm 5 mps 762 mmHg 84%
    05:00 +20°C° 0.2 mm 6 mps 763 mmHg 82%
    06:00 +20°C° 0.2 mm 6 mps 763 mmHg 80%
    07:00 +21°C° 0.2 mm 6 mps 763 mmHg 78%
    08:00 +21°C° 0.6 mm 6 mps 764 mmHg 78%
    09:00 +21°C° 0.6 mm 6 mps 764 mmHg 78%
    10:00 +22°C° 0.6 mm 6 mps 764 mmHg 78%
    11:00 +21°C° 0.8 mm 6 mps 764 mmHg 80%
    12:00 +21°C° 0.8 mm 6 mps 764 mmHg 82%
    13:00 +21°C° 0.8 mm 6 mps 764 mmHg 84%
    14:00 +21°C° 0.6 mm 6 mps 763 mmHg 84%
    15:00 +21°C° 0.6 mm 6 mps 763 mmHg 83%
    16:00 +21°C° 0.6 mm 6 mps 763 mmHg 83%
    17:00 +20°C° 0.1 mm 5 mps 763 mmHg 84%
    18:00 +20°C° 0.1 mm 5 mps 764 mmHg 85%
    19:00 +19°C° 0.1 mm 5 mps 764 mmHg 86%
    20:00 +19°C° 0.1 mm 4 mps 764 mmHg 86%
    21:00 +18°C° 0.1 mm 4 mps 765 mmHg 87%
    22:00 +18°C° 0.1 mm 4 mps 765 mmHg 87%
    23:00 +18°C° 0.1 mm 4 mps 765 mmHg 88%

    Day after tomorrow, 19 November, Sunday

    Time Temperature Precipitation Wind Pressure Humidity
    00:00 +18°C° 0.1 mm 4 mps 764 mmHg 88%
    01:00 +17°C° 0.1 mm 4 mps 764 mmHg 88%
    02:00 +17°C° 0.1 mm 4 mps 764 mmHg 89%
    03:00 +17°C° 0.1 mm 3 mps 764 mmHg 89%
    04:00 +17°C° 0.1 mm 3 mps 765 mmHg 89%
    05:00 +18°C° 0.1 mm 3 mps 765 mmHg 86%
    06:00 +19°C° 0.1 mm 3 mps 766 mmHg 84%
    07:00 +20°C° 0.1 mm 3 mps 766 mmHg 81%
    08:00 +21°C° 0.1 mm 4 mps 766 mmHg 75%
    09:00 +22°C° 0.1 mm 4 mps 766 mmHg 69%
    10:00 +23°C° 0.1 mm 4 mps 766 mmHg 63%
    11:00 +25°C° 0 mm 4 mps 766 mmHg 58%
    12:00 +26°C° 0 mm 4 mps 766 mmHg 52%
    13:00 +27°C° 0 mm 4 mps 765 mmHg 47%
    14:00 +26°C° 0 mm 4 mps 765 mmHg 48%
    15:00 +26°C° 0 mm 4 mps 765 mmHg 49%
    16:00 +26°C° 0 mm 4 mps 765 mmHg 49%
    17:00 +23°C° 0.1 mm 4 mps 765 mmHg 60%
    18:00 +21°C° 0.1 mm 4 mps 766 mmHg 70%
    19:00 +20°C° 0.1 mm 4 mps 766 mmHg 80%
    20:00 +19°C° 0.1 mm 4 mps 767 mmHg 82%
    21:00 +19°C° 0.1 mm 4 mps 767 mmHg 85%
    22:00 +19°C° 0.1 mm 4 mps 767 mmHg 87%
    23:00 +19°C° 0.1 mm 3 mps 767 mmHg 88%

    20 November, Monday

    Time Temperature Precipitation Wind Pressure Humidity
    00:00 +18°C° 0.1 mm 3 mps 767 mmHg 89%
    01:00 +18°C° 0.1 mm 3 mps 766 mmHg 90%
    02:00 +17°C° 0 mm 3 mps 766 mmHg 89%
    03:00 +17°C° 0 mm 2 mps 766 mmHg 89%
    04:00 +17°C° 0 mm 2 mps 766 mmHg 88%
    05:00 +18°C° 0 mm 2 mps 767 mmHg 84%
    06:00 +19°C° 0 mm 2 mps 767 mmHg 80%
    07:00 +20°C° 0 mm 3 mps 768 mmHg 76%
    08:00 +21°C° 0.1 mm 3 mps 768 mmHg 69%
    09:00 +22°C° 0.1 mm 3 mps 768 mmHg 62%
    10:00 +23°C° 0.1 mm 4 mps 768 mmHg 55%
    11:00 +24°C° 0 mm 3 mps 768 mmHg 56%
    12:00 +24°C° 0 mm 3 mps 767 mmHg 56%
    13:00 +24°C° 0 mm 3 mps 767 mmHg 57%
    14:00 +25°C° 0 mm 4 mps 767 mmHg 54%
    15:00 +25°C° 0 mm 4 mps 767 mmHg 52%
    16:00 +26°C° 0 mm 4 mps 766 mmHg 49%
    17:00 +23°C° 0 mm 4 mps 767 mmHg 58%
    18:00 +21°C° 0 mm 4 mps 767 mmHg 66%
    19:00 +20°C° 0 mm 4 mps 767 mmHg 75%
    20:00 +19°C° 0.1 mm 4 mps 767 mmHg 79%
    21:00 +19°C° 0.1 mm 4 mps 768 mmHg 84%
    22:00 +18°C° 0.1 mm 4 mps 768 mmHg 89%
    23:00 +18°C° 0.2 mm 4 mps 767 mmHg 90%

    21 November, Tuesday

    Time Temperature Precipitation Wind Pressure Humidity
    00:00 +19°C° 0.2 mm 4 mps 767 mmHg 90%
    01:00 +19°C° 0.2 mm 4 mps 767 mmHg 91%
    02:00 +18°C° 0.2 mm 3 mps 767 mmHg 92%
    03:00 +18°C° 0.2 mm 3 mps 767 mmHg 93%
    04:00 +18°C° 0.2 mm 3 mps 766 mmHg 93%
    05:00 +19°C° 0.1 mm 3 mps 767 mmHg 90%
    06:00 +19°C° 0.1 mm 3 mps 767 mmHg 86%
    07:00 +20°C° 0.1 mm 3 mps 767 mmHg 83%
    08:00 +21°C° 0.1 mm 3 mps 767 mmHg 75%
    09:00 +23°C° 0.1 mm 4 mps 767 mmHg 67%
    10:00 +25°C° 0.1 mm 4 mps 767 mmHg 58%
    11:00 +25°C° 0 mm 4 mps 766 mmHg 53%
    12:00 +26°C° 0 mm 4 mps 766 mmHg 48%
    13:00 +27°C° 0 mm 4 mps 766 mmHg 43%
    14:00 +26°C° 0 mm 4 mps 765 mmHg 43%
    15:00 +26°C° 0 mm 4 mps 765 mmHg 44%
    16:00 +26°C° 0 mm 4 mps 765 mmHg 45%
    17:00 +23°C° 0 mm 4 mps 765 mmHg 53%
    18:00 +21°C° 0 mm 4 mps 766 mmHg 60%
    19:00 +19°C° 0 mm 3 mps 766 mmHg 68%
    20:00 +19°C° 0 mm 3 mps 766 mmHg 72%
    21:00 +18°C° 0 mm 3 mps 766 mmHg 77%
    22:00 +17°C° 0 mm 3 mps 766 mmHg 82%
    23:00 +17°C° 0.1 mm 3 mps 765 mmHg 83%

    22 November, Wednesday

    Time Temperature Precipitation Wind Pressure Humidity
    00:00 +18°C° 0.1 mm 3 mps 765 mmHg 84%
    01:00 +18°C° 0.1 mm 3 mps 764 mmHg 85%
    02:00 +17°C° 0.2 mm 2 mps 764 mmHg 87%
    03:00 +17°C° 0.2 mm 2 mps 764 mmHg 89%
    04:00 +17°C° 0.2 mm 2 mps 764 mmHg 90%
    05:00 +18°C° 0.1 mm 2 mps 764 mmHg 85%
    06:00 +19°C° 0.1 mm 2 mps 765 mmHg 80%
    07:00 +21°C° 0.1 mm 2 mps 765 mmHg 75%
    08:00 +23°C° 0 mm 2 mps 765 mmHg 66%
    09:00 +25°C° 0 mm 3 mps 764 mmHg 56%
    10:00 +26°C° 0 mm 3 mps 764 mmHg 47%
    11:00 +27°C° 0 mm 3 mps 764 mmHg 46%
    12:00 +27°C° 0 mm 4 mps 763 mmHg 44%
    13:00 +27°C° 0 mm 4 mps 763 mmHg 43%
    14:00 +27°C° 0 mm 4 mps 762 mmHg 44%
    15:00 +27°C° 0 mm 4 mps 762 mmHg 45%
    16:00 +26°C° 0 mm 4 mps 762 mmHg 45%
    17:00 +23°C° 0 mm 4 mps 762 mmHg 53%
    18:00 +22°C° 0 mm 3 mps 763 mmHg 61%
    19:00 +20°C° 0 mm 3 mps 763 mmHg 69%
    20:00 +19°C° 0 mm 2 mps 763 mmHg 74%
    21:00 +18°C° 0 mm 2 mps 763 mmHg 80%
    22:00 +18°C° 0 mm 1 mps 763 mmHg 86%
    23:00 +18°C° 0 mm 1 mps 763 mmHg 87%
    Show more